Date,TemperatureHighF,TemperatureAvgF,TemperatureLowF,DewpointHighF,DewpointAvgF,DewpointLowF,HumidityHigh,HumidityAvg,HumidityLow,PressureMaxIn,PressureMinIn,WindSpeedMaxMPH,WindSpeedAvgMPH,GustSpeedMaxMPH,PrecipitationSumIn
2013-2-1,26.8,22.4,18.9,18.9,12.8,5.0,82,67,54,0.00,40.00,20,-12,20,20.59
2013-2-2,29.8,28.0,26.1,20.1,17.5,15.3,69,64,61,0.00,40.00,15,4,15,0.00
2013-2-3,36.3,29.8,24.4,27.9,20.0,16.3,91,68,49,0.00,40.00,28,6,28,0.00
2013-2-4,42.8,32.1,25.9,29.8,23.3,17.6,81,70,58,0.00,40.00,24,4,25,0.00
2013-2-5,50.5,35.2,25.7,35.1,27.8,21.0,92,75,55,0.00,40.00,20,4,23,0.00
2013-2-6,51.1,39.0,26.1,34.3,29.9,23.5,92,72,48,0.00,40.00,16,3,16,0.00
2013-2-7,44.2,39.7,33.3,40.6,35.8,31.1,94,86,65,0.00,40.00,24,4,26,0.42
2013-2-8,35.1,32.1,30.4,31.1,27.9,25.9,92,84,76,0.00,40.00,23,4,23,0.00
2013-2-9,40.5,33.8,28.2,32.9,28.2,24.8,92,80,69,0.00,40.00,15,4,17,0.08
2013-2-10,61.2,46.0,36.1,51.6,38.8,28.0,93,78,43,0.00,40.00,38,10,42,0.34
2013-2-11,46.4,38.2,28.4,29.5,26.1,21.9,81,62,50,0.00,40.00,40,11,43,0.00
2013-2-12,45.3,33.2,22.6,28.9,25.5,19.6,90,74,49,0.00,40.00,10,0,10,0.00
2013-2-13,49.8,39.0,28.6,34.2,29.4,24.1,84,69,50,0.00,40.00,20,3,21,0.00
2013-2-14,51.3,42.3,34.2,34.5,31.1,26.2,80,65,50,0.00,40.00,24,5,24,0.00
2013-2-15,39.4,30.4,22.5,27.5,17.1,11.7,79,59,38,0.00,40.00,22,6,22,0.00
2013-2-16,36.0,26.1,16.2,18.0,14.1,9.0,77,61,45,0.00,40.00,19,3,19,0.00
2013-2-17,45.7,33.1,21.0,31.3,21.1,14.9,79,63,42,0.00,40.00,17,4,17,0.00
2013-2-18,55.6,42.5,26.1,47.5,34.6,16.7,92,74,62,0.00,40.00,31,8,33,0.38
2013-2-19,28.0,22.5,18.1,17.6,12.5,8.4,74,65,52,0.00,40.00,30,10,32,0.02
2013-2-20,23.4,17.7,8.1,15.1,8.8,1.4,83,68,55,0.00,40.00,19,2,19,0.00
2013-2-21,29.5,22.8,17.2,27.7,19.1,12.0,93,86,76,0.00,40.00,21,4,21,0.00
2013-2-22,31.3,28.3,22.6,29.8,25.1,17.6,94,88,79,0.00,40.00,26,5,28,0.04
2013-2-23,30.7,22.9,13.5,21.6,16.8,10.4,88,78,67,0.00,40.00,12,2,12,0.16
2013-2-24,40.6,29.4,16.5,25.9,20.7,13.1,87,71,53,0.00,40.00,11,0,11,0.05
2013-2-25,41.7,34.8,26.4,32.5,27.6,22.3,85,75,61,0.00,40.00,23,4,24,0.00
2013-2-26,37.0,32.9,31.5,32.2,30.9,29.5,95,92,75,0.00,40.00,22,6,22,0.13
2013-2-27,34.0,31.6,30.4,31.8,29.6,27.7,94,92,90,0.00,40.00,20,3,20,0.04
2013-2-28,33.6,31.0,28.8,29.5,27.6,26.1,92,87,80,0.00,40.00,13,2,16,0.01
2013-3-1,31.8,28.0,24.6,26.8,24.1,19.9,92,85,72,0.00,40.00,15,3,15,0.07
2013-3-2,32.2,26.5,17.2,22.8,18.8,11.5,91,73,55,0.00,40.00,18,3,18,0.00
2013-3-3,33.3,25.7,14.4,23.5,18.0,10.4,89,73,60,0.00,40.00,11,1,11,0.00
2013-3-4,41.0,35.6,31.1,32.0,28.7,23.5,87,76,63,0.00,40.00,19,5,20,0.02
2013-3-5,34.3,31.8,29.7,30.4,27.1,22.5,93,83,69,0.00,40.00,26,8,29,0.11
2013-3-6,34.5,28.6,20.3,24.6,21.6,16.3,85,75,65,0.00,40.00,25,5,27,0.02
2013-3-7,37.0,28.9,18.5,28.9,22.6,15.3,88,78,63,0.00,40.00,11,1,12,0.00
2013-3-8,44.8,37.7,29.1,34.9,30.5,25.5,86,75,66,0.00,40.00,15,4,17,0.00
2013-3-9,54.9,44.4,37.4,42.4,38.2,32.9,94,79,61,0.00,40.00,17,4,17,1.24
2013-3-10,51.3,47.4,38.7,49.6,45.8,37.4,99,94,88,0.00,40.00,25,3,28,0.76
2013-3-11,38.7,33.5,30.6,37.4,29.6,24.3,95,86,72,0.00,40.00,31,8,31,0.00
2013-3-12,44.8,32.9,24.3,31.3,24.9,19.8,86,73,56,0.00,40.00,33,7,35,0.00
2013-3-13,40.5,31.1,23.5,22.1,19.0,16.3,78,62,42,0.00,40.00,26,6,27,0.00
2013-3-14,58.1,40.9,25.5,38.8,29.0,19.0,77,63,48,0.00,40.00,20,2,20,0.00
2013-3-15,67.5,50.1,33.1,50.0,39.6,28.4,85,68,47,0.00,40.00,13,0,13,0.00
2013-3-16,49.1,39.5,36.0,43.3,34.6,30.7,91,82,74,0.00,40.00,22,4,22,0.00
2013-3-17,39.0,34.8,31.6,32.4,28.8,25.7,90,79,66,0.00,40.00,15,4,16,0.06
2013-3-18,50.4,37.9,30.0,37.9,30.1,18.5,94,76,44,0.00,40.00,33,6,34,0.09
2013-3-19,46.0,35.4,25.7,21.6,17.6,12.2,69,50,32,0.00,40.00,23,6,23,0.00
2013-3-20,34.3,27.6,19.0,23.2,13.2,8.8,75,56,38,0.00,40.00,28,8,29,0.00
2013-3-21,38.1,27.7,16.0,17.8,13.9,9.3,75,57,39,0.00,40.00,12,0,13,0.00
2013-3-22,39.7,32.5,23.5,23.7,20.0,15.4,76,61,48,0.00,40.00,12,0,12,0.00
2013-3-23,50.5,40.9,33.8,32.2,27.3,22.8,88,59,42,0.00,40.00,17,2,18,0.00
2013-3-24,34.0,30.7,29.3,31.1,29.0,27.5,100,93,89,0.00,40.00,23,6,26,0.07
2013-3-25,33.3,30.7,28.9,30.7,28.6,27.0,94,91,84,0.00,40.00,22,6,22,0.14
2013-3-26,44.1,34.9,28.8,29.7,26.1,21.9,85,71,49,0.00,40.00,21,3,21,0.04
2013-3-27,46.4,36.3,23.9,29.8,25.4,19.9,86,66,46,0.00,40.00,7,0,7,0.00
2013-3-28,52.3,41.6,32.2,35.6,29.6,24.3,74,63,48,0.00,40.00,12,1,12,0.00
2013-3-29,61.5,48.6,35.4,45.1,37.3,29.8,81,66,45,0.00,40.00,11,1,11,0.00
2013-3-30,54.0,47.9,41.7,45.5,41.9,37.2,92,80,64,0.00,40.00,19,2,22,0.00
2013-3-31,66.0,53.3,41.0,50.0,42.1,29.3,94,69,40,0.00,40.00,24,4,25,0.00
2013-4-1,47.5,38.6,29.8,30.9,23.0,17.8,75,54,35,0.00,40.00,24,6,26,0.00
2013-4-2,51.4,38.5,24.8,25.0,21.0,15.8,79,52,28,0.00,40.00,17,2,17,0.00
2013-4-3,51.4,40.2,27.9,25.3,22.5,18.7,69,51,34,0.00,40.00,14,1,14,0.00
2013-4-4,63.1,49.2,34.0,31.8,27.9,23.7,66,46,29,0.00,40.00,14,0,14,0.00
2013-4-5,67.5,53.9,39.4,37.8,34.3,28.4,79,50,30,0.00,40.00,14,1,14,0.00
2013-4-6,72.5,62.3,53.2,52.2,43.0,36.7,60,50,38,0.00,40.00,32,8,37,0.00
2013-4-7,77.2,63.9,47.5,55.9,45.9,40.6,78,54,33,0.00,40.00,13,1,13,0.01
2013-4-8,75.4,65.2,54.7,62.2,57.8,50.5,94,78,62,0.00,40.00,29,2,30,0.95
2013-4-9,77.2,70.3,65.1,64.0,60.7,57.7,80,72,63,0.00,40.00,25,4,31,0.00
2013-4-10,70.2,53.6,46.4,63.3,50.7,43.9,95,90,77,0.00,40.00,32,3,37,0.69
2013-4-11,50.4,43.2,38.3,48.9,38.4,30.6,95,84,72,0.00,40.00,29,6,29,0.36
2013-4-12,43.9,39.9,37.0,35.4,32.7,30.0,80,75,71,0.00,40.00,23,6,27,0.00
2013-4-13,59.4,47.3,34.0,41.2,34.4,27.5,81,62,43,0.00,40.00,20,4,20,0.01
2013-4-14,80.4,63.8,47.8,55.4,47.8,40.8,92,59,33,0.00,40.00,28,5,29,0.36
2013-4-15,60.4,53.9,43.2,55.6,48.0,37.9,95,81,58,0.00,40.00,16,2,17,0.44
2013-4-16,51.1,45.6,40.8,41.7,39.1,36.9,90,78,64,0.00,40.00,16,1,16,0.27
2013-4-17,59.0,50.4,45.1,57.9,46.9,41.0,96,88,73,0.00,40.00,37,5,47,1.15
2013-4-18,63.0,52.1,38.3,61.5,49.2,31.3,97,90,76,0.00,40.00,37,7,39,2.83
2013-4-19,48.9,41.1,36.1,31.6,29.0,26.1,77,63,46,0.00,40.00,32,11,32,0.00
2013-4-20,55.9,43.3,29.1,32.2,28.1,22.3,85,57,28,0.00,40.00,13,1,13,0.00
2013-4-21,63.0,51.7,41.2,44.1,38.0,31.3,72,60,48,0.00,40.00,17,5,17,0.00
2013-4-22,71.1,60.2,48.7,46.2,41.6,37.0,66,51,32,0.00,40.00,21,2,21,0.00
2013-4-23,59.4,43.7,37.0,48.4,39.5,34.9,93,86,59,0.00,40.00,21,6,22,0.56
2013-4-24,54.9,44.4,35.2,35.2,32.3,29.3,91,65,40,0.00,40.00,20,5,21,0.08
2013-4-25,64.4,52.7,40.5,37.4,34.5,31.3,80,52,32,0.00,40.00,27,4,27,0.00
2013-4-26,61.9,55.3,49.8,48.4,43.5,34.3,78,65,54,0.00,40.00,25,4,25,0.00
2013-4-27,54.1,50.6,47.3,50.4,47.3,43.0,94,89,77,0.00,40.00,9,0,9,0.02
2013-4-28,68.2,56.6,50.5,54.5,51.0,48.6,95,82,60,0.00,40.00,8,1,13,0.01
2013-4-29,84.0,66.3,48.7,66.6,56.4,46.2,92,72,47,0.00,40.00,17,3,20,0.00
2013-4-30,86.4,75.3,65.1,61.9,58.4,51.8,83,58,36,0.00,40.00,26,4,26,0.00
2013-5-1,86.2,74.3,59.4,58.5,55.3,49.1,70,53,36,0.00,40.00,19,2,19,0.00
2013-5-2,59.2,47.5,37.8,49.6,41.2,35.6,93,79,65,0.00,40.00,25,8,25,0.47
2013-5-3,43.2,38.5,36.3,41.9,36.8,34.5,95,93,93,0.00,40.00,25,8,25,2.05
2013-5-4,50.5,45.2,39.7,46.8,42.9,38.5,95,92,81,0.00,40.00,10,0,10,0.39
2013-5-5,70.5,57.2,45.1,59.0,52.0,43.7,96,84,62,0.00,40.00,19,2,21,0.01
2013-5-6,76.5,64.2,53.8,58.3,53.7,50.5,92,71,45,0.00,40.00,20,2,21,0.01
2013-5-7,84.0,70.2,54.5,55.9,49.7,43.3,84,52,28,0.00,40.00,12,0,12,0.00
2013-5-8,84.9,68.7,54.1,61.3,54.0,45.7,82,62,36,0.00,40.00,15,0,15,0.02
2013-5-9,70.9,63.2,59.4,64.6,59.8,55.0,94,89,77,0.00,40.00,15,0,16,0.41
2013-5-10,60.3,56.7,50.4,58.5,53.0,47.5,94,87,75,0.00,40.00,20,3,20,0.00
2013-5-11,64.2,54.6,45.5,54.3,40.1,28.2,95,62,34,0.00,40.00,30,6,30,0.01
2013-5-12,64.6,52.1,39.9,35.6,31.2,28.6,65,46,30,0.00,40.00,19,2,19,0.00
2013-5-13,74.5,59.6,40.3,46.6,40.6,31.1,85,53,30,0.00,40.00,15,1,15,0.00
2013-5-14,90.1,76.0,58.3,65.1,57.1,46.0,75,54,39,0.00,40.00,24,4,28,0.00
2013-5-15,91.8,79.5,67.8,66.0,60.8,55.0,75,54,40,0.00,40.00,25,3,27,0.00
2013-5-16,87.4,75.6,64.9,68.2,64.5,58.6,92,70,51,0.00,40.00,16,1,16,0.00
2013-5-17,81.1,70.4,59.9,65.7,61.1,54.1,88,73,57,0.00,40.00,11,0,12,0.00
2013-5-18,84.6,72.6,63.0,68.2,64.7,61.3,95,78,55,0.00,40.00,16,1,18,0.00
2013-5-19,89.8,77.7,69.3,75.0,68.4,62.2,89,74,54,0.00,40.00,33,-1,33,0.01
2013-5-20,84.4,70.0,61.7,68.7,62.3,59.0,94,78,48,0.00,40.00,31,3,38,1.30
2013-5-21,79.9,70.3,62.8,63.9,60.4,55.8,92,73,53,0.00,40.00,25,3,25,1.30
2013-5-22,75.6,65.7,60.1,58.8,55.4,52.0,89,70,50,0.00,40.00,23,3,23,0.00
2013-5-23,69.1,60.5,55.2,57.0,53.0,49.6,92,77,56,0.00,40.00,23,3,23,0.00
2013-5-24,69.3,59.1,48.0,50.2,46.2,42.6,90,65,41,0.00,40.00,12,1,13,0.00
2013-5-25,65.7,57.4,51.6,56.1,49.6,44.8,92,76,61,0.00,40.00,17,2,17,0.50
2013-5-26,77.2,63.7,52.9,66.0,57.1,47.8,90,79,67,0.00,40.00,15,2,15,0.00
2013-5-27,77.5,67.5,63.0,66.0,63.8,61.3,96,88,65,0.00,40.00,23,1,23,3.88
2013-5-28,77.7,71.2,61.3,71.2,66.6,59.5,95,86,75,0.00,40.00,30,3,32,1.30
2013-5-29,87.6,75.6,61.3,71.1,65.6,59.5,94,73,50,0.00,40.00,20,2,24,0.53
2013-5-30,84.9,72.7,62.4,70.7,65.1,59.5,94,78,58,0.00,40.00,33,4,33,1.10
2013-5-31,72.7,65.3,60.6,69.4,63.1,58.8,96,93,85,0.00,40.00,16,0,18,0.91
2013-6-1,80.1,68.6,61.9,67.8,61.5,56.5,95,79,48,0.00,40.00,25,4,28,0.05
2013-6-2,66.2,61.3,55.6,57.6,53.0,46.0,87,75,63,0.00,40.00,16,2,17,0.00
2013-6-3,73.8,62.5,52.2,53.6,49.9,45.1,80,65,48,0.00,40.00,9,0,10,0.00
2013-6-4,77.4,65.3,53.1,59.4,54.7,49.1,87,70,51,0.00,40.00,14,1,14,0.00
2013-6-5,81.0,69.8,57.9,64.6,60.3,54.7,91,73,55,0.00,40.00,11,0,11,0.00
2013-6-6,80.8,69.5,63.0,63.9,58.4,52.7,93,71,41,0.00,40.00,18,2,18,0.00
2013-6-7,75.7,66.6,57.7,59.5,56.1,54.1,91,71,50,0.00,40.00,16,1,16,0.00
2013-6-8,82.0,70.0,55.9,59.5,56.2,52.7,90,64,41,0.00,40.00,17,1,17,0.00
2013-6-9,76.3,67.8,61.7,65.1,60.4,55.9,94,78,62,0.00,40.00,18,1,18,0.35
2013-6-10,82.8,70.1,61.9,64.4,62.1,60.1,95,78,53,0.00,40.00,14,1,15,0.35
2013-6-11,91.8,77.6,61.7,73.8,67.6,59.2,93,73,51,0.00,40.00,21,2,21,0.00
2013-6-12,96.1,84.1,72.1,76.6,71.7,65.5,86,68,49,0.00,40.00,31,5,31,0.00
2013-6-13,87.1,76.1,65.8,65.7,60.8,56.3,92,62,36,0.00,40.00,27,4,30,0.00
2013-6-14,81.5,71.4,63.5,66.6,61.5,57.4,83,72,52,0.00,40.00,21,1,21,0.04
2013-6-15,93.6,76.2,66.0,75.6,67.9,62.1,94,77,54,0.00,40.00,37,2,37,0.30
2013-6-16,87.3,76.4,66.2,73.6,68.7,64.8,95,79,59,0.00,40.00,14,0,14,0.32
2013-6-17,91.2,77.2,66.6,72.5,68.3,64.4,95,76,47,0.00,40.00,11,0,11,0.00
2013-6-18,87.3,76.6,66.0,69.6,65.1,60.1,95,70,47,0.00,40.00,15,2,16,0.00
2013-6-19,88.2,75.4,61.9,66.6,61.7,57.6,86,64,41,0.00,40.00,7,1,8,0.00
2013-6-20,91.8,80.5,67.5,71.8,66.5,59.7,80,64,47,0.00,40.00,16,2,16,0.00
2013-6-21,95.4,84.9,76.3,76.1,72.3,67.6,78,67,52,0.00,40.00,17,1,17,0.00
2013-6-22,96.6,82.6,73.2,77.4,72.2,63.5,84,72,48,0.00,40.00,17,2,17,0.00
2013-6-23,91.9,75.0,68.5,74.8,67.6,64.0,94,79,53,0.00,40.00,23,2,24,1.92
2013-6-24,93.4,79.9,69.4,77.0,70.9,65.8,91,75,55,0.00,40.00,20,1,21,0.00
2013-6-25,93.2,83.3,75.4,76.8,73.2,70.0,84,72,58,0.00,40.00,15,2,21,0.00
2013-6-26,95.7,81.8,71.2,79.2,73.2,64.6,88,76,57,0.00,40.00,20,1,26,0.00
2013-6-27,98.8,83.4,71.2,73.6,69.7,66.6,85,65,38,0.00,40.00,21,1,22,0.00
2013-6-28,88.9,80.4,70.3,68.5,62.7,56.5,85,58,36,0.00,40.00,27,0,28,0.00
2013-6-29,82.2,71.0,63.3,67.1,61.8,58.8,93,74,53,0.00,40.00,25,4,26,0.09
2013-6-30,78.8,69.3,62.8,64.9,62.2,60.1,94,79,56,0.00,40.00,21,2,22,0.10
2013-7-1,81.9,71.2,60.1,61.9,56.8,52.7,83,62,42,0.00,40.00,23,2,23,0.10
2013-7-2,81.1,70.7,59.4,59.5,55.8,52.0,79,61,42,0.00,40.00,27,1,27,0.10
2013-7-3,87.8,73.2,61.3,63.3,59.7,55.4,82,65,41,0.00,40.00,9,0,9,0.00
2013-7-4,90.0,76.8,62.8,64.9,61.8,58.3,89,62,39,0.00,40.00,15,0,15,0.00
2013-7-5,89.4,77.6,64.6,67.3,63.5,59.4,85,64,44,0.00,40.00,12,1,12,0.00
2013-7-6,90.9,78.6,65.7,71.2,66.9,62.4,92,69,48,0.00,40.00,13,1,13,0.00
2013-7-7,93.2,81.3,69.6,72.9,68.3,63.1,82,66,47,0.00,40.00,19,2,19,0.00
2013-7-8,89.1,81.9,74.1,76.5,71.5,67.5,87,71,62,0.00,40.00,15,1,16,0.03
2013-7-9,94.8,85.1,76.5,77.4,73.6,71.2,85,69,52,0.00,40.00,17,1,18,0.03
2013-7-10,91.8,82.0,70.2,74.5,69.2,59.9,92,67,46,0.00,40.00,18,1,18,0.10
2013-7-11,87.1,76.0,64.9,65.1,61.0,58.5,80,61,42,0.00,40.00,10,0,11,0.00
2013-7-12,86.9,74.9,62.4,60.8,58.6,54.7,86,60,37,0.00,40.00,13,1,13,0.00
2013-7-13,86.9,75.1,62.4,65.1,60.6,55.0,78,62,42,0.00,40.00,12,1,12,0.00
2013-7-14,89.1,80.8,68.0,69.6,66.3,62.6,83,63,44,0.00,40.00,12,1,12,0.00
2013-7-15,93.6,82.7,71.4,75.7,71.8,67.3,88,71,52,0.00,40.00,12,0,12,0.00
2013-7-16,94.8,84.1,73.8,76.1,73.5,71.2,93,72,52,0.00,40.00,15,0,17,0.00
2013-7-17,100.8,87.1,74.8,77.0,73.7,70.3,87,66,45,0.00,40.00,9,0,9,0.00
2013-7-18,99.3,87.5,76.6,76.5,73.8,71.8,87,66,46,0.00,40.00,10,1,11,0.00
2013-7-19,100.2,88.2,77.4,75.2,71.2,68.2,80,60,37,0.00,40.00,22,2,22,0.00
2013-7-20,90.3,82.6,73.8,71.2,68.5,63.5,80,64,43,0.00,40.00,13,0,13,0.00
2013-7-21,83.8,73.5,67.8,72.5,69.1,65.8,94,87,67,0.00,40.00,15,0,15,0.20
2013-7-22,91.6,77.9,65.1,76.6,70.8,63.7,96,80,60,0.00,40.00,17,0,17,0.11
2013-7-23,87.3,77.0,66.9,70.3,65.5,59.9,88,69,49,0.00,40.00,20,2,20,0.00
2013-7-24,81.0,71.2,62.6,60.6,58.3,56.1,85,65,48,0.00,40.00,13,1,15,0.00
2013-7-25,87.6,73.9,57.9,63.0,59.5,53.8,88,63,42,0.00,40.00,16,0,17,0.00
2013-7-26,82.8,71.9,63.3,72.7,64.6,57.0,93,78,66,0.00,40.00,18,0,21,0.76
2013-7-27,74.8,65.6,56.5,57.6,53.3,48.4,88,67,44,0.00,40.00,20,3,20,0.00
2013-7-28,83.3,68.0,52.2,54.9,51.9,48.2,90,60,35,0.00,40.00,18,1,19,0.00
2013-7-29,81.3,68.6,55.8,63.3,57.6,51.4,87,69,42,0.00,40.00,6,0,6,0.01
2013-7-30,82.4,72.1,65.3,71.8,67.3,62.8,94,85,70,0.00,40.00,13,0,13,0.62
2013-7-31,79.3,72.0,67.3,70.3,67.1,64.2,96,85,67,0.00,40.00,11,1,12,0.03
2013-8-1,93.6,77.6,64.9,70.3,64.8,59.7,94,68,35,0.00,40.00,12,1,12,0.00
2013-8-2,87.6,74.5,68.2,73.0,67.5,63.9,94,80,60,0.00,40.00,19,1,19,0.00
2013-8-3,86.4,75.2,66.7,67.8,63.4,58.6,95,69,46,0.00,40.00,14,1,14,0.00
2013-8-4,84.9,72.9,62.6,63.9,60.8,57.4,83,67,46,0.00,40.00,17,1,17,0.00
2013-8-5,81.0,73.5,66.0,71.2,66.6,61.2,91,79,70,0.00,40.00,21,1,21,0.00
2013-8-6,89.1,77.4,67.6,75.6,71.4,65.8,96,83,62,0.00,40.00,18,1,19,0.00
2013-8-7,86.7,77.2,70.9,78.1,72.6,65.7,94,86,72,0.00,40.00,12,1,12,0.19
2013-8-8,84.0,73.4,63.9,71.1,66.8,61.0,92,80,62,0.00,40.00,10,1,11,0.00
2013-8-9,86.7,75.7,67.8,67.8,66.0,63.1,91,73,50,0.00,40.00,11,0,11,0.00
2013-8-10,83.8,75.1,64.6,67.5,61.2,56.8,84,64,42,0.00,40.00,22,1,22,0.00
2013-8-11,89.1,75.7,61.0,66.6,61.9,56.1,86,65,44,0.00,40.00,12,0,14,0.00
2013-8-12,85.6,75.6,67.5,72.7,66.5,62.2,86,74,64,0.00,40.00,18,0,18,0.00
2013-8-13,82.0,69.8,61.2,64.8,59.5,53.1,89,71,49,0.00,40.00,14,1,15,0.00
2013-8-14,80.2,66.5,53.1,54.9,51.7,48.7,87,61,39,0.00,40.00,16,0,16,0.00
2013-8-15,81.1,67.1,58.1,58.5,54.3,51.8,83,65,43,0.00,40.00,10,0,10,0.00
2013-8-16,79.9,69.4,59.9,58.8,56.7,54.3,83,66,45,0.00,40.00,12,1,12,0.00
2013-8-17,82.0,73.1,59.9,60.8,57.7,54.3,83,60,43,0.00,40.00,15,1,21,0.00
2013-8-18,87.1,73.1,59.4,64.9,60.5,54.7,85,66,47,0.00,40.00,15,0,15,0.00
2013-8-19,88.0,76.1,63.1,68.4,64.6,60.1,92,69,49,0.00,40.00,17,1,17,0.00
2013-8-20,91.2,78.6,65.8,71.4,66.5,62.2,89,68,44,0.00,40.00,13,1,14,0.00
2013-8-21,92.7,79.9,67.5,70.7,67.7,63.9,89,68,48,0.00,40.00,15,1,18,0.00
2013-8-22,91.8,79.8,69.4,74.1,71.0,65.7,88,75,55,0.00,40.00,11,1,12,0.00
2013-8-23,92.1,79.7,68.9,73.9,69.8,66.6,93,74,52,0.00,40.00,10,1,10,0.00
2013-8-24,92.7,80.2,68.9,74.1,69.3,65.1,89,71,50,0.00,40.00,11,1,11,0.00
2013-8-25,95.0,81.3,69.3,72.3,67.6,64.2,85,65,43,0.00,40.00,15,1,15,0.00
2013-8-26,96.6,83.0,68.2,76.1,70.3,64.4,90,67,47,0.00,40.00,15,2,16,0.00
2013-8-27,97.7,84.9,73.2,72.9,68.7,63.3,88,61,39,0.00,40.00,22,2,24,0.00
2013-8-28,101.8,87.1,74.5,73.4,68.9,64.4,75,57,37,0.00,40.00,20,2,20,0.00
2013-8-29,100.0,86.3,73.6,76.3,70.6,65.7,88,62,39,0.00,40.00,7,1,12,0.00
2013-8-30,101.8,88.2,74.8,76.6,73.5,70.0,93,65,40,0.00,40.00,16,2,17,0.00
2013-8-31,101.7,87.2,76.3,79.2,73.6,70.0,85,65,48,0.00,40.00,14,2,14,0.00
2013-9-1,94.3,80.3,70.3,75.9,68.9,60.1,96,71,41,0.00,40.00,18,2,18,0.00
2013-9-2,84.0,72.8,62.2,65.1,59.5,54.1,90,65,41,0.00,40.00,16,2,18,0.00
2013-9-3,82.9,69.9,55.2,60.8,55.5,52.3,91,63,38,0.00,40.00,13,0,15,0.00
2013-9-4,92.7,75.2,56.3,63.5,56.8,52.3,92,57,28,0.00,40.00,12,0,12,0.00
2013-9-5,93.7,77.5,62.4,66.7,61.2,56.3,84,60,38,0.00,40.00,18,1,20,0.00
2013-9-6,92.3,78.4,66.2,67.1,63.0,59.7,82,61,38,0.00,40.00,10,1,19,0.00
2013-9-7,96.3,80.6,63.5,70.5,65.3,58.6,86,62,39,0.00,40.00,14,1,16,0.00
2013-9-8,94.5,81.3,71.4,74.7,71.2,66.9,93,72,52,0.00,40.00,17,2,17,0.40
2013-9-9,101.1,85.5,72.9,74.1,69.3,62.6,91,62,36,0.00,40.00,20,3,20,0.00
2013-9-10,98.1,84.6,71.8,72.5,66.7,64.0,80,57,37,0.00,40.00,20,2,21,0.00
2013-9-11,99.3,85.0,72.7,70.3,66.0,62.8,72,55,34,0.00,40.00,19,1,20,0.00
2013-9-12,86.7,73.9,62.8,71.1,61.9,48.9,95,70,33,0.00,40.00,20,2,20,0.49
2013-9-13,75.6,64.3,55.0,56.1,48.3,40.3,81,59,30,0.00,40.00,17,1,17,0.00
2013-9-14,75.6,62.8,48.0,51.3,47.5,42.3,86,60,39,0.00,40.00,10,0,12,0.00
2013-9-15,81.0,66.1,59.4,66.4,56.2,46.6,92,72,49,0.00,40.00,16,2,16,0.03
2013-9-16,71.6,61.9,55.9,58.5,54.8,52.2,91,79,57,0.00,40.00,16,1,16,0.03
2013-9-17,66.7,61.2,54.0,62.4,57.0,51.1,91,86,76,0.00,40.00,9,1,9,0.01
2013-9-18,89.4,75.6,62.6,72.9,67.1,59.0,92,76,57,0.00,40.00,18,2,22,0.01
2013-9-19,93.4,80.0,67.5,72.5,69.3,65.3,94,71,46,0.00,40.00,26,2,26,0.65
2013-9-20,75.6,66.8,55.4,66.9,59.0,50.7,96,78,48,0.00,40.00,18,2,18,0.70
2013-9-21,72.9,60.9,50.7,52.5,49.6,46.8,90,69,45,0.00,40.00,17,2,21,0.00
2013-9-22,78.1,62.8,48.4,55.2,50.2,45.1,90,66,39,0.00,40.00,9,0,9,0.00
2013-9-23,76.3,63.6,50.7,55.8,51.7,46.9,87,67,47,0.00,40.00,17,1,17,0.00
2013-9-24,78.4,67.3,54.0,62.6,56.8,48.9,86,70,57,0.00,40.00,16,2,16,0.00
2013-9-25,83.5,69.8,57.4,64.8,60.0,54.1,92,72,52,0.00,40.00,9,0,10,0.00
2013-9-26,85.8,72.2,59.0,66.7,60.7,55.4,89,69,47,0.00,40.00,14,2,14,0.00
2013-9-27,84.9,72.7,61.9,66.0,60.2,54.3,85,66,49,0.00,40.00,17,2,17,0.00
2013-9-28,78.6,67.7,57.6,69.4,61.3,54.3,94,81,63,0.00,40.00,16,3,17,0.38
2013-9-29,74.8,62.0,48.9,61.2,51.0,46.2,96,71,39,0.00,40.00,6,0,6,0.01
2013-9-30,78.3,64.6,49.8,61.7,53.4,42.4,86,68,51,0.00,40.00,16,1,16,0.00
2013-10-1,85.1,71.9,62.6,69.3,64.3,59.0,94,79,50,0.00,40.00,16,2,17,0.00
2013-10-2,87.3,73.3,64.4,72.0,66.1,62.4,96,81,47,0.00,40.00,19,1,19,0.06
2013-10-3,86.9,73.2,67.5,71.8,67.6,64.0,93,83,60,0.00,40.00,32,1,32,0.19
2013-10-4,90.1,77.6,68.9,72.3,68.5,66.4,94,76,48,0.00,40.00,20,1,21,0.01
2013-10-5,75.7,64.3,50.5,69.6,60.5,47.1,92,87,80,0.00,40.00,18,1,19,0.11
2013-10-6,53.1,48.4,42.3,47.5,43.5,39.4,93,83,66,0.00,40.00,30,4,30,0.05
2013-10-7,73.2,59.5,48.7,51.3,47.8,45.7,93,68,40,0.00,40.00,18,2,19,0.05
2013-10-8,77.7,63.4,49.6,54.0,49.0,45.0,85,62,37,0.00,40.00,17,1,17,0.00
2013-10-9,75.6,62.2,49.8,52.2,48.4,45.5,85,63,38,0.00,40.00,16,1,17,0.00
2013-10-10,79.0,65.3,52.0,59.2,54.1,48.0,91,69,46,0.00,40.00,15,1,19,0.00
2013-10-11,78.6,67.8,56.1,62.1,57.4,53.8,93,71,48,0.00,40.00,19,2,19,0.00
2013-10-12,74.7,65.9,54.7,60.4,50.7,40.6,87,60,35,0.00,40.00,18,2,23,0.00
2013-10-13,72.1,58.2,46.4,43.0,38.1,33.3,78,50,29,0.00,40.00,13,1,13,0.00
2013-10-14,68.7,56.9,43.2,52.9,41.5,33.3,80,58,42,0.00,40.00,15,2,16,0.03
2013-10-15,69.4,60.5,48.6,62.4,52.6,40.6,94,76,51,0.00,40.00,24,4,24,0.27
2013-10-16,56.8,51.0,47.1,43.5,41.6,39.9,80,70,60,0.00,40.00,20,4,20,0.00
2013-10-17,66.9,53.8,45.3,48.9,44.1,41.0,92,72,42,0.00,40.00,26,2,26,0.05
2013-10-18,59.2,47.5,41.4,43.3,39.2,35.4,90,75,46,0.00,40.00,17,3,19,0.02
2013-10-19,58.5,46.7,36.1,41.2,37.5,33.6,92,72,43,0.00,40.00,27,4,27,0.01
2013-10-20,73.2,57.3,43.2,46.2,41.8,37.8,83,59,34,0.00,40.00,29,3,29,0.00
2013-10-21,59.0,47.8,36.7,44.6,35.1,29.8,82,62,44,0.00,40.00,20,4,20,0.00
2013-10-22,55.8,42.4,36.1,46.2,37.7,31.8,89,83,68,0.00,40.00,26,4,26,0.04
2013-10-23,49.6,40.6,34.3,36.7,32.5,27.5,92,75,44,0.00,40.00,19,3,19,0.01
2013-10-24,44.1,38.1,28.6,36.1,27.7,23.5,89,67,49,0.00,40.00,16,4,23,0.00
2013-10-25,56.7,42.1,26.8,33.8,27.7,23.2,92,61,34,0.00,40.00,21,1,21,0.00
2013-10-26,61.9,48.8,37.6,40.1,31.7,27.1,69,53,34,0.00,40.00,24,4,24,0.00
2013-10-27,59.4,45.0,29.5,35.4,30.6,26.1,89,60,37,0.00,40.00,11,1,19,0.00
2013-10-28,70.5,53.2,38.1,39.0,33.8,28.6,71,50,27,0.00,40.00,11,0,11,0.00
2013-10-29,56.1,50.6,43.9,53.2,43.4,33.8,94,77,55,0.00,40.00,11,1,11,0.00
2013-10-30,58.1,55.9,54.9,57.0,54.5,53.2,96,95,94,0.00,40.00,6,0,6,0.02
2013-10-31,64.0,55.3,45.7,62.8,53.8,43.5,96,95,92,0.00,40.00,20,2,20,1.09
2013-11-1,59.0,49.7,42.8,44.4,42.2,39.6,94,77,55,0.00,40.00,23,3,23,0.01
2013-11-2,54.5,46.2,36.3,41.4,37.0,31.1,87,71,47,0.00,40.00,15,3,22,0.00
2013-11-3,57.4,45.9,33.3,38.1,34.5,29.8,89,66,46,0.00,40.00,16,2,16,0.00
2013-11-4,59.0,53.3,48.4,47.5,42.2,36.1,72,66,60,0.00,40.00,15,2,15,0.00
2013-11-5,58.5,54.7,51.6,55.0,51.7,46.8,94,90,72,0.00,40.00,19,3,20,0.25
2013-11-6,58.5,45.6,34.2,56.8,41.5,29.7,95,86,73,0.00,40.00,26,4,27,0.70
2013-11-7,56.1,41.6,29.3,39.7,31.6,26.4,91,70,43,0.00,40.00,20,2,21,0.01
2013-11-8,55.6,43.4,28.8,38.3,32.0,25.3,89,66,43,0.00,40.00,23,2,25,0.00
2013-11-9,67.8,55.2,46.8,43.0,38.5,34.7,75,55,32,0.00,40.00,20,3,25,0.00
2013-11-10,55.2,44.6,34.9,34.9,31.8,28.6,79,61,43,0.00,40.00,14,1,15,0.00
2013-11-11,60.8,43.3,27.3,46.0,33.8,21.0,88,70,56,0.00,40.00,25,5,26,0.00
2013-11-12,35.2,25.9,18.1,21.0,15.3,11.5,80,65,43,0.00,40.00,16,4,22,0.00
2013-11-13,46.0,33.1,18.1,21.7,17.5,13.5,84,56,33,0.00,40.00,21,3,21,0.00
2013-11-14,54.9,43.6,34.0,28.2,24.0,19.4,62,46,34,0.00,40.00,25,4,26,0.00
2013-11-15,58.3,47.7,40.8,43.0,34.4,24.6,84,60,48,0.00,40.00,16,1,16,0.00
2013-11-16,63.5,57.5,47.8,57.4,52.4,43.2,88,83,75,0.00,40.00,27,4,27,0.04
2013-11-17,73.4,59.3,43.9,65.1,51.5,39.9,91,77,51,0.00,40.00,30,7,44,0.01
2013-11-18,54.3,44.2,35.1,39.7,33.6,27.5,87,68,43,0.00,40.00,25,3,25,0.01
2013-11-19,52.2,39.7,29.8,34.2,28.8,25.0,84,66,47,0.00,40.00,14,2,18,0.00
2013-11-20,45.0,39.4,36.9,39.2,33.4,28.8,92,79,67,0.00,40.00,15,3,16,0.57
2013-11-21,50.5,46.3,37.9,45.9,41.9,35.8,93,85,76,0.00,40.00,18,1,18,0.17
2013-11-22,37.9,32.5,23.7,35.6,28.7,19.6,93,86,77,0.00,40.00,21,7,22,0.09
2013-11-23,26.1,21.6,12.9,20.1,13.5,7.3,86,71,56,0.00,40.00,25,7,25,0.00
2013-11-24,29.7,20.6,9.7,14.0,10.5,5.9,85,66,42,0.00,40.00,11,1,11,0.00
2013-11-25,36.1,31.6,26.1,21.7,18.3,12.9,70,58,48,0.00,40.00,18,4,19,0.00
2013-11-26,37.2,28.2,19.8,27.3,19.1,10.4,85,69,52,0.00,40.00,26,6,28,0.00
2013-11-27,30.0,21.7,13.8,12.7,10.0,7.5,76,61,42,0.00,40.00,14,3,14,0.00
2013-11-28,43.0,30.8,21.6,24.6,18.7,12.4,72,61,47,0.00,40.00,18,3,18,0.00
2013-11-29,42.1,31.3,20.8,26.6,21.4,15.1,80,67,52,0.00,40.00,12,1,12,0.00
2013-11-30,54.7,42.1,32.4,38.3,32.7,26.6,82,70,53,0.00,40.00,21,2,23,0.00
2013-12-1,54.9,41.9,30.6,39.9,33.3,28.0,93,73,51,0.00,40.00,6,0,9,0.00
2013-12-2,52.5,42.5,36.7,42.6,36.1,30.6,88,78,68,0.00,40.00,12,1,13,0.00
2013-12-3,56.1,47.2,39.2,50.5,44.3,37.0,94,89,81,0.00,40.00,16,1,16,0.00
2013-12-4,60.3,48.1,29.1,53.6,44.2,23.4,94,86,72,0.00,40.00,26,5,26,0.00
2013-12-5,29.1,22.8,19.8,23.5,13.1,9.7,80,66,58,0.00,40.00,26,7,26,0.00
2013-12-6,19.8,15.8,11.1,10.2,5.6,3.0,74,64,53,0.00,40.00,19,7,20,0.00
2013-12-7,21.9,13.9,6.1,6.4,3.7,1.0,79,64,44,0.00,40.00,16,3,16,0.00
2013-12-8,24.6,21.5,16.5,22.1,15.8,6.4,90,79,63,0.00,40.00,16,2,16,0.00
2013-12-9,23.5,17.0,11.1,20.3,10.4,4.3,87,75,66,0.00,40.00,21,6,22,0.00
2013-12-10,32.5,21.1,8.4,18.1,9.9,2.1,75,62,47,0.00,40.00,20,6,28,0.00
2013-12-11,27.0,18.3,5.4,19.8,7.5,-3.6,78,63,40,0.00,40.00,26,4,26,0.00
2013-12-12,40.3,23.1,4.6,19.9,10.8,-2.6,75,60,43,0.00,40.00,23,3,24,0.00
2013-12-13,36.1,31.4,25.3,31.3,25.2,18.1,94,78,57,0.00,40.00,10,0,11,0.11
2013-12-14,32.7,27.6,19.8,32.0,25.6,16.5,100,92,87,0.00,40.00,0,0,0,0.06
2013-12-15,28.6,21.7,15.1,22.8,18.2,11.8,90,86,77,0.00,40.00,4,0,4,0.00
2013-12-16,25.9,22.6,18.7,23.4,20.0,15.6,92,90,88,0.00,40.00,11,1,14,0.00
2013-12-17,38.8,30.0,18.9,32.0,23.8,16.5,92,79,62,0.00,40.00,27,3,27,0.23
2013-12-18,46.9,36.4,21.9,34.9,25.5,14.4,76,65,54,0.00,40.00,21,2,22,0.11
2013-12-19,53.8,48.6,43.5,47.1,41.6,34.5,85,77,67,0.00,40.00,13,1,14,0.00
2013-12-20,51.3,36.5,29.1,48.0,34.5,27.1,94,93,85,0.00,40.00,14,2,14,0.09
2013-12-21,31.1,29.0,27.9,29.1,26.8,25.5,93,91,90,0.00,40.00,12,1,12,0.01
2013-12-22,31.8,27.2,18.0,30.4,24.5,13.6,94,90,81,0.00,40.00,7,0,7,0.00
2013-12-23,18.1,11.5,3.6,13.8,5.4,-4.0,84,76,68,0.00,40.00,14,1,14,0.00
2013-12-24,22.3,10.8,-1.5,15.8,3.6,-8.0,78,72,65,0.00,40.00,16,2,16,0.00
2013-12-25,32.9,28.5,22.3,28.8,24.8,15.8,92,86,76,0.00,40.00,18,3,20,0.00
2013-12-26,42.6,33.0,21.6,33.8,27.3,17.2,95,80,67,0.00,40.00,18,2,18,0.16
2013-12-27,50.9,39.0,28.6,37.4,31.9,26.2,92,77,54,0.00,40.00,11,1,13,0.01
2013-12-28,55.6,44.9,37.8,38.3,33.2,29.1,78,64,47,0.00,40.00,21,2,22,0.00
2013-12-29,40.6,22.5,8.8,30.2,14.7,-2.4,87,72,56,0.00,40.00,29,9,30,0.00
2013-12-30,25.5,13.8,2.8,14.4,2.7,-5.1,72,61,45,0.00,40.00,12,1,12,0.00
2013-12-31,37.8,25.8,16.2,25.5,17.9,10.9,83,72,60,0.00,40.00,15,1,16,0.00
2014-1-1,24.8,19.6,15.3,18.9,15.4,12.2,88,83,77,0.00,40.00,20,3,20,0.00
2014-1-2,18.1,11.4,1.9,12.7,6.8,-3.1,92,82,77,0.00,40.00,21,7,22,0.00